Year,Month,Day,Hour,Minute,Value (Times are PST for temperature in C)
2007,08,15,00,00,15.50
2007,08,15,00,01,15.50
2007,08,15,00,02,15.50
2007,08,15,00,03,15.50
2007,08,15,00,04,15.50
2007,08,15,00,05,15.50
2007,08,15,00,06,15.50
2007,08,15,00,07,15.50
2007,08,15,00,08,15.40
2007,08,15,00,09,15.40
2007,08,15,00,10,15.30
2007,08,15,00,11,15.30
2007,08,15,00,12,15.20
2007,08,15,00,13,15.20
2007,08,15,00,14,15.10
2007,08,15,00,15,15.00
2007,08,15,00,16,15.00
2007,08,15,00,17,15.00
2007,08,15,00,18,15.00
2007,08,15,00,19,15.00
2007,08,15,00,20,15.00
2007,08,15,00,21,15.00
2007,08,15,00,22,15.00
2007,08,15,00,23,15.00
2007,08,15,00,24,15.00
2007,08,15,00,25,15.00
2007,08,15,00,26,15.00
2007,08,15,00,27,15.00
2007,08,15,00,28,15.00
2007,08,15,00,29,15.00
2007,08,15,00,30,15.00
2007,08,15,00,31,15.00
2007,08,15,00,32,15.00
2007,08,15,00,33,15.00
2007,08,15,00,34,15.00
2007,08,15,00,35,15.00
2007,08,15,00,36,15.00
2007,08,15,00,37,15.00
2007,08,15,00,38,15.00
2007,08,15,00,39,15.00
2007,08,15,00,40,15.00
2007,08,15,00,41,15.00
2007,08,15,00,42,15.00
2007,08,15,00,43,14.90
2007,08,15,00,44,14.80
2007,08,15,00,45,14.80
2007,08,15,00,46,14.70
2007,08,15,00,47,14.70
2007,08,15,00,48,14.70
2007,08,15,00,49,14.70
2007,08,15,00,50,14.70
2007,08,15,00,51,14.70
2007,08,15,00,52,14.80
2007,08,15,00,53,14.80
2007,08,15,00,54,14.80
2007,08,15,00,55,14.80
2007,08,15,00,56,14.80
2007,08,15,00,57,14.80
2007,08,15,00,58,14.80
2007,08,15,00,59,14.80
2007,08,15,01,00,14.70
2007,08,15,01,01,14.70
2007,08,15,01,02,14.70
2007,08,15,01,03,14.70
2007,08,15,01,04,14.60
2007,08,15,01,05,14.60
2007,08,15,01,06,14.60
2007,08,15,01,07,14.60
2007,08,15,01,08,14.50
2007,08,15,01,09,14.50
2007,08,15,01,10,14.50
2007,08,15,01,11,14.50
2007,08,15,01,12,14.40
2007,08,15,01,13,14.40
2007,08,15,01,14,14.40
2007,08,15,01,15,14.40
2007,08,15,01,16,14.40
2007,08,15,01,17,14.30
2007,08,15,01,18,14.30
2007,08,15,01,19,14.30
2007,08,15,01,20,14.30
2007,08,15,01,21,14.30
2007,08,15,01,22,14.30
2007,08,15,01,23,14.30
2007,08,15,01,24,14.30
2007,08,15,01,25,14.40
2007,08,15,01,26,14.30
2007,08,15,01,27,14.40
2007,08,15,01,28,14.40
2007,08,15,01,29,14.40
2007,08,15,01,30,14.30
2007,08,15,01,31,14.30
2007,08,15,01,32,14.30
2007,08,15,01,33,14.20
2007,08,15,01,34,14.20
2007,08,15,01,35,14.20
2007,08,15,01,36,14.10
2007,08,15,01,37,14.10
2007,08,15,01,38,14.10
2007,08,15,01,39,14.00
2007,08,15,01,40,14.00
2007,08,15,01,41,13.90
2007,08,15,01,42,13.90
2007,08,15,01,43,13.90
2007,08,15,01,44,14.00
2007,08,15,01,45,13.90
2007,08,15,01,46,14.00
2007,08,15,01,47,14.00
2007,08,15,01,48,14.10
2007,08,15,01,49,14.10
2007,08,15,01,50,14.10
2007,08,15,01,51,14.00
2007,08,15,01,52,14.00
2007,08,15,01,53,13.90
2007,08,15,01,54,13.90
2007,08,15,01,55,13.90
2007,08,15,01,56,13.80
2007,08,15,01,57,13.80
2007,08,15,01,58,13.70
2007,08,15,01,59,13.70
2007,08,15,02,00,13.70
2007,08,15,02,01,13.70
2007,08,15,02,02,13.70
2007,08,15,02,03,13.70
2007,08,15,02,04,13.70
2007,08,15,02,05,13.70
2007,08,15,02,06,13.80
2007,08,15,02,07,13.80
2007,08,15,02,08,13.80
2007,08,15,02,09,13.80
2007,08,15,02,10,13.80
2007,08,15,02,11,13.80
2007,08,15,02,12,13.80
2007,08,15,02,13,13.70
2007,08,15,02,14,13.70
2007,08,15,02,15,13.70
2007,08,15,02,16,13.70
2007,08,15,02,17,13.60
2007,08,15,02,18,13.60
2007,08,15,02,19,13.60
2007,08,15,02,20,13.60
2007,08,15,02,21,13.60
2007,08,15,02,22,13.50
2007,08,15,02,23,13.50
2007,08,15,02,24,13.50
2007,08,15,02,25,13.50
2007,08,15,02,26,13.40
2007,08,15,02,27,13.40
2007,08,15,02,28,13.40
2007,08,15,02,29,13.40
2007,08,15,02,30,13.40
2007,08,15,02,31,13.40
2007,08,15,02,32,13.30
2007,08,15,02,33,13.30
2007,08,15,02,34,13.30
2007,08,15,02,35,13.30
2007,08,15,02,36,13.30
2007,08,15,02,37,13.30
2007,08,15,02,38,13.30
2007,08,15,02,39,13.30
2007,08,15,02,40,13.30
2007,08,15,02,41,13.30
2007,08,15,02,42,13.30
2007,08,15,02,43,13.30
2007,08,15,02,44,13.20
2007,08,15,02,45,13.20
2007,08,15,02,46,13.20
2007,08,15,02,47,13.20
2007,08,15,02,48,13.20
2007,08,15,02,49,13.20
2007,08,15,02,50,13.30
2007,08,15,02,51,13.40
2007,08,15,02,52,13.50
2007,08,15,02,53,13.60
2007,08,15,02,54,13.60
2007,08,15,02,55,13.70
2007,08,15,02,56,13.80
2007,08,15,02,57,13.90
2007,08,15,02,58,14.00
2007,08,15,02,59,14.10
2007,08,15,03,00,14.10
2007,08,15,03,01,14.10
2007,08,15,03,02,14.10
2007,08,15,03,03,14.10
2007,08,15,03,04,14.20
2007,08,15,03,05,14.20
2007,08,15,03,06,14.20
2007,08,15,03,07,14.20
2007,08,15,03,08,14.30
2007,08,15,03,09,14.30
2007,08,15,03,10,14.30
2007,08,15,03,11,14.40
2007,08,15,03,12,14.40
2007,08,15,03,13,14.40
2007,08,15,03,14,14.50
2007,08,15,03,15,14.60
2007,08,15,03,16,14.60
2007,08,15,03,17,14.70
2007,08,15,03,18,14.80
2007,08,15,03,19,14.80
2007,08,15,03,20,14.90
2007,08,15,03,21,14.90
2007,08,15,03,22,15.00
2007,08,15,03,23,15.00
2007,08,15,03,24,15.00
2007,08,15,03,25,15.00
2007,08,15,03,26,15.00
2007,08,15,03,27,15.00
2007,08,15,03,28,15.00
2007,08,15,03,29,15.00
2007,08,15,03,30,15.00
2007,08,15,03,31,15.00
2007,08,15,03,32,15.00
2007,08,15,03,33,14.90
2007,08,15,03,34,14.80
2007,08,15,03,35,14.80
2007,08,15,03,36,14.70
2007,08,15,03,37,14.60
2007,08,15,03,38,14.60
2007,08,15,03,39,14.60
2007,08,15,03,40,14.60
2007,08,15,03,41,14.70
2007,08,15,03,42,14.70
2007,08,15,03,43,14.70
2007,08,15,03,44,14.80
2007,08,15,03,45,14.80
2007,08,15,03,46,14.80
2007,08,15,03,47,14.80
2007,08,15,03,48,14.80
2007,08,15,03,49,14.80
2007,08,15,03,50,14.80
2007,08,15,03,51,14.70
2007,08,15,03,52,14.70
2007,08,15,03,53,14.70
2007,08,15,03,54,14.70
2007,08,15,03,55,14.60
2007,08,15,03,56,14.60
2007,08,15,03,57,14.60
2007,08,15,03,58,14.50
2007,08,15,03,59,14.50
2007,08,15,04,00,14.40
2007,08,15,04,01,14.40
2007,08,15,04,02,14.40
2007,08,15,04,03,14.40
2007,08,15,04,04,14.40
2007,08,15,04,05,14.40
2007,08,15,04,06,14.40
2007,08,15,04,07,14.40
2007,08,15,04,08,14.40
2007,08,15,04,09,14.40
2007,08,15,04,10,14.30
2007,08,15,04,11,14.40
2007,08,15,04,12,14.40
2007,08,15,04,13,14.30
2007,08,15,04,14,14.30
2007,08,15,04,15,14.20
2007,08,15,04,16,14.20
2007,08,15,04,17,14.20
2007,08,15,04,18,14.10
2007,08,15,04,19,14.10
2007,08,15,04,20,14.10
2007,08,15,04,21,14.10
2007,08,15,04,22,14.00
2007,08,15,04,23,14.00
2007,08,15,04,24,14.00
2007,08,15,04,25,14.10
2007,08,15,04,26,14.00
2007,08,15,04,27,14.00
2007,08,15,04,28,14.00
2007,08,15,04,29,14.00
2007,08,15,04,30,13.90
2007,08,15,04,31,13.90
2007,08,15,04,32,14.00
2007,08,15,04,33,14.00
2007,08,15,04,34,13.90
2007,08,15,04,35,13.90
2007,08,15,04,36,13.90
2007,08,15,04,37,13.90
2007,08,15,04,38,13.90
2007,08,15,04,39,13.80
2007,08,15,04,40,13.80
2007,08,15,04,41,13.80
2007,08,15,04,42,13.80
2007,08,15,04,43,13.80
2007,08,15,04,44,13.80
2007,08,15,04,45,13.80
2007,08,15,04,46,13.80
2007,08,15,04,47,13.80
2007,08,15,04,48,13.80
2007,08,15,04,49,13.80
2007,08,15,04,50,13.80
2007,08,15,04,51,13.80
2007,08,15,04,52,13.80
2007,08,15,04,53,13.80
2007,08,15,04,54,13.80
2007,08,15,04,55,13.80
2007,08,15,04,56,13.80
2007,08,15,04,57,13.70
2007,08,15,04,58,13.70
2007,08,15,04,59,13.70
2007,08,15,05,00,13.70
2007,08,15,05,01,13.70
2007,08,15,05,02,13.60
2007,08,15,05,03,13.60
2007,08,15,05,04,13.50
2007,08,15,05,05,13.50
2007,08,15,05,06,13.40
2007,08,15,05,07,13.40
2007,08,15,05,08,13.40
2007,08,15,05,09,13.40
2007,08,15,05,10,13.50
2007,08,15,05,11,13.60
2007,08,15,05,12,13.60
2007,08,15,05,13,13.70
2007,08,15,05,14,13.70
2007,08,15,05,15,13.70
2007,08,15,05,16,13.70
2007,08,15,05,17,13.70
2007,08,15,05,18,13.60
2007,08,15,05,19,13.50
2007,08,15,05,20,13.50
2007,08,15,05,21,13.40
2007,08,15,05,22,13.30
2007,08,15,05,23,13.30
2007,08,15,05,24,13.20
2007,08,15,05,25,13.20
2007,08,15,05,26,13.20
2007,08,15,05,27,13.10
2007,08,15,05,28,13.10
2007,08,15,05,29,13.10
2007,08,15,05,30,13.00
2007,08,15,05,31,13.00
2007,08,15,05,32,13.00
2007,08,15,05,33,13.00
2007,08,15,05,34,13.00
2007,08,15,05,35,13.00
2007,08,15,05,36,12.90
2007,08,15,05,37,12.90
2007,08,15,05,38,12.90
2007,08,15,05,39,13.00
2007,08,15,05,40,13.10
2007,08,15,05,41,13.10
2007,08,15,05,42,13.10
2007,08,15,05,43,13.20
2007,08,15,05,44,13.30
2007,08,15,05,45,13.30
2007,08,15,05,46,13.40
2007,08,15,05,47,13.50
2007,08,15,05,48,13.50
2007,08,15,05,49,13.60
2007,08,15,05,50,13.60
2007,08,15,05,51,13.70
2007,08,15,05,52,13.80
2007,08,15,05,53,13.80
2007,08,15,05,54,13.90
2007,08,15,05,55,13.90
2007,08,15,05,56,14.00
2007,08,15,05,57,14.00
2007,08,15,05,58,14.00
2007,08,15,05,59,14.00
2007,08,15,06,00,14.10
2007,08,15,06,01,14.10
2007,08,15,06,02,14.10
2007,08,15,06,03,14.10
2007,08,15,06,04,14.10
2007,08,15,06,05,14.20
2007,08,15,06,06,14.20
2007,08,15,06,07,14.20
2007,08,15,06,08,14.20
2007,08,15,06,09,14.20
2007,08,15,06,10,14.20
2007,08,15,06,11,14.20
2007,08,15,06,12,14.10
2007,08,15,06,13,14.10
2007,08,15,06,14,14.10
2007,08,15,06,15,14.10
2007,08,15,06,16,14.10
2007,08,15,06,17,14.10
2007,08,15,06,18,14.10
2007,08,15,06,19,14.10
2007,08,15,06,20,14.10
2007,08,15,06,21,14.10
2007,08,15,06,22,14.10
2007,08,15,06,23,14.20
2007,08,15,06,24,14.20
2007,08,15,06,25,14.20
2007,08,15,06,26,14.20
2007,08,15,06,27,14.20
2007,08,15,06,28,14.20
2007,08,15,06,29,14.20
2007,08,15,06,30,14.20
2007,08,15,06,31,14.20
2007,08,15,06,32,14.20
2007,08,15,06,33,14.20
2007,08,15,06,34,14.20
2007,08,15,06,35,14.20
2007,08,15,06,36,14.20
2007,08,15,06,37,14.20
2007,08,15,06,38,14.30
2007,08,15,06,39,14.30
2007,08,15,06,40,14.30
2007,08,15,06,41,14.30
2007,08,15,06,42,14.40
2007,08,15,06,43,14.40
2007,08,15,06,44,14.40
2007,08,15,06,45,14.40
2007,08,15,06,46,14.50
2007,08,15,06,47,14.50
2007,08,15,06,48,14.50
2007,08,15,06,49,14.60
2007,08,15,06,50,14.60
2007,08,15,06,51,14.60
2007,08,15,06,52,14.60
2007,08,15,06,53,14.70
2007,08,15,06,54,14.70
2007,08,15,06,55,14.70
2007,08,15,06,56,14.70
2007,08,15,06,57,14.80
2007,08,15,06,58,14.80
2007,08,15,06,59,14.80
2007,08,15,07,00,14.80
2007,08,15,07,01,14.80
2007,08,15,07,02,14.80
2007,08,15,07,03,14.80
2007,08,15,07,04,14.80
2007,08,15,07,05,14.80
2007,08,15,07,06,14.80
2007,08,15,07,07,14.90
2007,08,15,07,08,14.90
2007,08,15,07,09,14.90
2007,08,15,07,10,14.90
2007,08,15,07,11,14.90
2007,08,15,07,12,14.90
2007,08,15,07,13,14.90
2007,08,15,07,14,14.90
2007,08,15,07,15,14.90
2007,08,15,07,16,15.00
2007,08,15,07,17,15.00
2007,08,15,07,18,15.00
2007,08,15,07,19,15.00
2007,08,15,07,20,15.00
2007,08,15,07,21,15.00
2007,08,15,07,22,15.00
2007,08,15,07,23,15.00
2007,08,15,07,24,15.00
2007,08,15,07,25,15.00
2007,08,15,07,26,15.00
2007,08,15,07,27,15.00
2007,08,15,07,28,15.00
2007,08,15,07,29,15.00
2007,08,15,07,30,15.00
2007,08,15,07,31,15.00
2007,08,15,07,32,15.10
2007,08,15,07,33,15.20
2007,08,15,07,34,15.20
2007,08,15,07,35,15.30
2007,08,15,07,36,15.30
2007,08,15,07,37,15.40
2007,08,15,07,38,15.40
2007,08,15,07,39,15.40
2007,08,15,07,40,15.50
2007,08,15,07,41,15.50
2007,08,15,07,42,15.60
2007,08,15,07,43,15.60
2007,08,15,07,44,15.70
2007,08,15,07,45,15.80
2007,08,15,07,46,15.80
2007,08,15,07,47,15.80
2007,08,15,07,48,15.90
2007,08,15,07,49,15.90
2007,08,15,07,50,16.00
2007,08,15,07,51,16.00
2007,08,15,07,52,16.10
2007,08,15,07,53,16.10
2007,08,15,07,54,16.10
2007,08,15,07,55,16.20
2007,08,15,07,56,16.20
2007,08,15,07,57,16.30
2007,08,15,07,58,16.30
2007,08,15,07,59,16.40
2007,08,15,08,00,16.50
2007,08,15,08,01,16.50
2007,08,15,08,02,16.60
2007,08,15,08,03,16.60
2007,08,15,08,04,16.70
2007,08,15,08,05,16.70
2007,08,15,08,06,16.80
2007,08,15,08,07,16.80
2007,08,15,08,08,16.90
2007,08,15,08,09,16.90
2007,08,15,08,10,17.00
2007,08,15,08,11,17.00
2007,08,15,08,12,17.10
2007,08,15,08,13,17.20
2007,08,15,08,14,17.20
2007,08,15,08,15,17.30
2007,08,15,08,16,17.40
2007,08,15,08,17,17.40
2007,08,15,08,18,17.50
2007,08,15,08,19,17.60
2007,08,15,08,20,17.70
2007,08,15,08,21,17.70
2007,08,15,08,22,17.80
2007,08,15,08,23,17.80
2007,08,15,08,24,17.90
2007,08,15,08,25,17.90
2007,08,15,08,26,18.00
2007,08,15,08,27,18.00
2007,08,15,08,28,18.10
2007,08,15,08,29,18.10
2007,08,15,08,30,18.20
2007,08,15,08,31,18.20
2007,08,15,08,32,18.20
2007,08,15,08,33,18.30
2007,08,15,08,34,18.30
2007,08,15,08,35,18.40
2007,08,15,08,36,18.40
2007,08,15,08,37,18.50
2007,08,15,08,38,18.60
2007,08,15,08,39,18.60
2007,08,15,08,40,18.70
2007,08,15,08,41,18.80
2007,08,15,08,42,18.80
2007,08,15,08,43,18.90
2007,08,15,08,44,19.00
2007,08,15,08,45,19.10
2007,08,15,08,46,19.10
2007,08,15,08,47,19.20
2007,08,15,08,48,19.30
2007,08,15,08,49,19.40
2007,08,15,08,50,19.50
2007,08,15,08,51,19.60
2007,08,15,08,52,19.70
2007,08,15,08,53,19.80
2007,08,15,08,54,19.90
2007,08,15,08,55,19.90
2007,08,15,08,56,20.00
2007,08,15,08,57,20.10
2007,08,15,08,58,20.20
2007,08,15,08,59,20.20
2007,08,15,09,00,20.30
2007,08,15,09,01,20.40
2007,08,15,09,02,20.40
2007,08,15,09,03,20.50
2007,08,15,09,04,20.60
2007,08,15,09,05,20.70
2007,08,15,09,06,20.80
2007,08,15,09,07,20.80
2007,08,15,09,08,20.90
2007,08,15,09,09,20.90
2007,08,15,09,10,21.00
2007,08,15,09,11,21.10
2007,08,15,09,12,21.10
2007,08,15,09,13,21.10
2007,08,15,09,14,21.10
2007,08,15,09,15,21.10
2007,08,15,09,16,21.10
2007,08,15,09,17,21.10
2007,08,15,09,18,21.20
2007,08,15,09,19,21.20
2007,08,15,09,20,21.20
2007,08,15,09,21,21.30
2007,08,15,09,22,21.30
2007,08,15,09,23,21.40
2007,08,15,09,24,21.40
2007,08,15,09,25,21.50
2007,08,15,09,26,21.60
2007,08,15,09,27,21.60
2007,08,15,09,28,21.70
2007,08,15,09,29,21.70
2007,08,15,09,30,21.80
2007,08,15,09,31,21.80
2007,08,15,09,32,21.80
2007,08,15,09,33,21.90
2007,08,15,09,34,21.90
2007,08,15,09,35,21.90
2007,08,15,09,36,22.00
2007,08,15,09,37,22.00
2007,08,15,09,38,22.00
2007,08,15,09,39,22.00
2007,08,15,09,40,22.00
2007,08,15,09,41,22.10
2007,08,15,09,42,22.20
2007,08,15,09,43,22.20
2007,08,15,09,44,22.20
2007,08,15,09,45,22.30
2007,08,15,09,46,22.40
2007,08,15,09,47,22.50
2007,08,15,09,48,22.60
2007,08,15,09,49,22.50
2007,08,15,09,50,22.50
2007,08,15,09,51,22.40
2007,08,15,09,52,22.40
2007,08,15,09,53,22.40
2007,08,15,09,54,22.50
2007,08,15,09,55,22.60
2007,08,15,09,56,22.60
2007,08,15,09,57,22.70
2007,08,15,09,58,22.70
2007,08,15,09,59,22.70
2007,08,15,10,00,22.70
2007,08,15,10,01,22.80
2007,08,15,10,02,22.80
2007,08,15,10,03,22.80
2007,08,15,10,04,22.70
2007,08,15,10,05,22.70
2007,08,15,10,06,22.60
2007,08,15,10,07,22.60
2007,08,15,10,08,22.70
2007,08,15,10,09,22.70
2007,08,15,10,10,22.80
2007,08,15,10,11,22.80
2007,08,15,10,12,22.80
2007,08,15,10,13,22.80
2007,08,15,10,14,22.80
2007,08,15,10,15,22.70
2007,08,15,10,16,22.80
2007,08,15,10,17,22.80
2007,08,15,10,18,22.80
2007,08,15,10,19,22.80
2007,08,15,10,20,22.80
2007,08,15,10,21,22.80
2007,08,15,10,22,22.90
2007,08,15,10,23,22.90
2007,08,15,10,24,23.00
2007,08,15,10,25,23.10
2007,08,15,10,26,23.10
2007,08,15,10,27,23.10
2007,08,15,10,28,23.20
2007,08,15,10,29,23.20
2007,08,15,10,30,23.10
2007,08,15,10,31,23.00
2007,08,15,10,32,23.00
2007,08,15,10,33,23.00
2007,08,15,10,34,23.00
2007,08,15,10,35,23.00
2007,08,15,10,36,22.90
2007,08,15,10,37,22.90
2007,08,15,10,38,22.80
2007,08,15,10,39,22.60
2007,08,15,10,40,22.60
2007,08,15,10,41,22.60
2007,08,15,10,42,22.60
2007,08,15,10,43,22.60
2007,08,15,10,44,22.60
2007,08,15,10,45,22.70
2007,08,15,10,46,22.80
2007,08,15,10,47,22.90
2007,08,15,10,48,22.90
2007,08,15,10,49,22.90
2007,08,15,10,50,22.90
2007,08,15,10,51,22.90
2007,08,15,10,52,22.90
2007,08,15,10,53,22.90
2007,08,15,10,54,23.00
2007,08,15,10,55,23.10
2007,08,15,10,56,23.10
2007,08,15,10,57,23.20
2007,08,15,10,58,23.20
2007,08,15,10,59,23.30
2007,08,15,11,00,23.30
2007,08,15,11,01,23.30
2007,08,15,11,02,23.30
2007,08,15,11,03,23.30
2007,08,15,11,04,23.20
2007,08,15,11,05,23.20
2007,08,15,11,06,23.10
2007,08,15,11,07,23.10
2007,08,15,11,08,23.20
2007,08,15,11,09,23.30
2007,08,15,11,10,23.40
2007,08,15,11,11,23.40
2007,08,15,11,12,23.50
2007,08,15,11,13,23.60
2007,08,15,11,14,23.70
2007,08,15,11,15,23.80
2007,08,15,11,16,23.80
2007,08,15,11,17,23.90
2007,08,15,11,18,24.00
2007,08,15,11,19,24.10
2007,08,15,11,20,24.10
2007,08,15,11,21,24.10
2007,08,15,11,22,24.10
2007,08,15,11,23,24.10
2007,08,15,11,24,24.10
2007,08,15,11,25,24.10
2007,08,15,11,26,24.20
2007,08,15,11,27,24.30
2007,08,15,11,28,24.30
2007,08,15,11,29,24.30
2007,08,15,11,30,24.30
2007,08,15,11,31,24.30
2007,08,15,11,32,24.20
2007,08,15,11,33,24.20
2007,08,15,11,34,24.10
2007,08,15,11,35,24.10
2007,08,15,11,36,24.10
2007,08,15,11,37,24.00
2007,08,15,11,38,24.00
2007,08,15,11,39,24.10
2007,08,15,11,40,24.00
2007,08,15,11,41,23.90
2007,08,15,11,42,23.80
2007,08,15,11,43,23.70
2007,08,15,11,44,23.60
2007,08,15,11,45,23.60
2007,08,15,11,46,23.50
2007,08,15,11,47,23.40
2007,08,15,11,48,23.40
2007,08,15,11,49,23.40
2007,08,15,11,50,23.50
2007,08,15,11,51,23.60
2007,08,15,11,52,23.60
2007,08,15,11,53,23.60
2007,08,15,11,54,23.50
2007,08,15,11,55,23.50
2007,08,15,11,56,23.40
2007,08,15,11,57,23.40
2007,08,15,11,58,23.40
2007,08,15,11,59,23.50
2007,08,15,12,00,23.50
2007,08,15,12,01,23.40
2007,08,15,12,02,23.40
2007,08,15,12,03,23.40
2007,08,15,12,04,23.40
2007,08,15,12,05,23.40
2007,08,15,12,06,23.40
2007,08,15,12,07,23.50
2007,08,15,12,08,23.50
2007,08,15,12,09,23.40
2007,08,15,12,10,23.40
2007,08,15,12,11,23.50
2007,08,15,12,12,23.50
2007,08,15,12,13,23.50
2007,08,15,12,14,23.50
2007,08,15,12,15,23.50
2007,08,15,12,16,23.60
2007,08,15,12,17,23.70
2007,08,15,12,18,23.80
2007,08,15,12,19,23.90
2007,08,15,12,20,23.90
2007,08,15,12,21,23.90
2007,08,15,12,22,23.90
2007,08,15,12,23,24.00
2007,08,15,12,24,24.10
2007,08,15,12,25,24.10
2007,08,15,12,26,24.10
2007,08,15,12,27,24.00
2007,08,15,12,28,23.90
2007,08,15,12,29,24.00
2007,08,15,12,30,24.00
2007,08,15,12,31,24.10
2007,08,15,12,32,24.10
2007,08,15,12,33,24.10
2007,08,15,12,34,24.20
2007,08,15,12,35,24.20
2007,08,15,12,36,24.20
2007,08,15,12,37,24.20
2007,08,15,12,38,24.30
2007,08,15,12,39,24.40
2007,08,15,12,40,24.50
2007,08,15,12,41,24.60
2007,08,15,12,42,24.60
2007,08,15,12,43,24.60
2007,08,15,12,44,24.50
2007,08,15,12,45,24.50
2007,08,15,12,46,24.50
2007,08,15,12,47,24.40
2007,08,15,12,48,24.30
2007,08,15,12,49,24.30
2007,08,15,12,50,24.20
2007,08,15,12,51,24.20
2007,08,15,12,52,24.30
2007,08,15,12,53,24.30
2007,08,15,12,54,24.30
2007,08,15,12,55,24.30
2007,08,15,12,56,24.40
2007,08,15,12,57,24.40
2007,08,15,12,58,24.30
2007,08,15,12,59,24.20
2007,08,15,13,00,24.20
2007,08,15,13,01,24.10
2007,08,15,13,02,24.10
2007,08,15,13,03,24.10
2007,08,15,13,04,24.10
2007,08,15,13,05,24.20
2007,08,15,13,06,24.20
2007,08,15,13,07,24.20
2007,08,15,13,08,24.10
2007,08,15,13,09,24.10
2007,08,15,13,10,24.20
2007,08,15,13,11,24.30
2007,08,15,13,12,24.30
2007,08,15,13,13,24.40
2007,08,15,13,14,24.40
2007,08,15,13,15,24.40
2007,08,15,13,16,24.40
2007,08,15,13,17,24.40
2007,08,15,13,18,24.50
2007,08,15,13,19,24.50
2007,08,15,13,20,24.50
2007,08,15,13,21,24.50
2007,08,15,13,22,24.50
2007,08,15,13,23,24.60
2007,08,15,13,24,24.50
2007,08,15,13,25,24.50
2007,08,15,13,26,24.50
2007,08,15,13,27,24.50
2007,08,15,13,28,24.60
2007,08,15,13,29,24.60
2007,08,15,13,30,24.70
2007,08,15,13,31,24.70
2007,08,15,13,32,24.80
2007,08,15,13,33,24.80
2007,08,15,13,34,24.80
2007,08,15,13,35,24.80
2007,08,15,13,36,24.80
2007,08,15,13,37,24.80
2007,08,15,13,38,24.80
2007,08,15,13,39,24.90
2007,08,15,13,40,24.90
2007,08,15,13,41,24.90
2007,08,15,13,42,24.80
2007,08,15,13,43,24.90
2007,08,15,13,44,24.80
2007,08,15,13,45,24.70
2007,08,15,13,46,24.70
2007,08,15,13,47,24.70
2007,08,15,13,48,24.70
2007,08,15,13,49,24.70
2007,08,15,13,50,24.70
2007,08,15,13,51,24.80
2007,08,15,13,52,24.80
2007,08,15,13,53,24.80
2007,08,15,13,54,24.90
2007,08,15,13,55,25.00
2007,08,15,13,56,25.00
2007,08,15,13,57,25.10
2007,08,15,13,58,25.20
2007,08,15,13,59,25.20
2007,08,15,14,00,25.10
2007,08,15,14,01,25.10
2007,08,15,14,02,25.10
2007,08,15,14,03,25.10
2007,08,15,14,04,25.20
2007,08,15,14,05,25.20
2007,08,15,14,06,25.20
2007,08,15,14,07,25.30
2007,08,15,14,08,25.40
2007,08,15,14,09,25.40
2007,08,15,14,10,25.50
2007,08,15,14,11,25.50
2007,08,15,14,12,25.40
2007,08,15,14,13,25.40
2007,08,15,14,14,25.50
2007,08,15,14,15,25.60
2007,08,15,14,16,25.60
2007,08,15,14,17,25.60
2007,08,15,14,18,25.60
2007,08,15,14,19,25.60
2007,08,15,14,20,25.60
2007,08,15,14,21,25.70
2007,08,15,14,22,25.80
2007,08,15,14,23,25.90
2007,08,15,14,24,25.90
2007,08,15,14,25,25.90
2007,08,15,14,26,26.00
2007,08,15,14,27,26.10
2007,08,15,14,28,26.10
2007,08,15,14,29,26.20
2007,08,15,14,30,26.20
2007,08,15,14,31,26.20
2007,08,15,14,32,26.20
2007,08,15,14,33,26.20
2007,08,15,14,34,26.20
2007,08,15,14,35,26.30
2007,08,15,14,36,26.30
2007,08,15,14,37,26.40
2007,08,15,14,38,26.40
2007,08,15,14,39,26.50
2007,08,15,14,40,26.40
2007,08,15,14,41,26.30
2007,08,15,14,42,26.20
2007,08,15,14,43,26.20
2007,08,15,14,44,26.20
2007,08,15,14,45,26.20
2007,08,15,14,46,26.20
2007,08,15,14,47,26.30
2007,08,15,14,48,26.40
2007,08,15,14,49,26.40
2007,08,15,14,50,26.50
2007,08,15,14,51,26.50
2007,08,15,14,52,26.60
2007,08,15,14,53,26.60
2007,08,15,14,54,26.50
2007,08,15,14,55,26.40
2007,08,15,14,56,26.30
2007,08,15,14,57,26.30
2007,08,15,14,58,26.30
2007,08,15,14,59,26.30
2007,08,15,15,00,26.40
2007,08,15,15,01,26.50
2007,08,15,15,02,26.50
2007,08,15,15,03,26.60
2007,08,15,15,04,26.60
2007,08,15,15,05,26.60
2007,08,15,15,06,26.40
2007,08,15,15,07,26.40
2007,08,15,15,08,26.40
2007,08,15,15,09,26.40
2007,08,15,15,10,26.40
2007,08,15,15,11,26.40
2007,08,15,15,12,26.40
2007,08,15,15,13,26.40
2007,08,15,15,14,26.40
2007,08,15,15,15,26.40
2007,08,15,15,16,26.40
2007,08,15,15,17,26.30
2007,08,15,15,18,26.30
2007,08,15,15,19,26.30
2007,08,15,15,20,26.20
2007,08,15,15,21,26.30
2007,08,15,15,22,26.30
2007,08,15,15,23,26.40
2007,08,15,15,24,26.40
2007,08,15,15,25,26.40
2007,08,15,15,26,26.40
2007,08,15,15,27,26.30
2007,08,15,15,28,26.20
2007,08,15,15,29,26.20
2007,08,15,15,30,26.30
2007,08,15,15,31,26.30
2007,08,15,15,32,26.40
2007,08,15,15,33,26.50
2007,08,15,15,34,26.60
2007,08,15,15,35,26.60
2007,08,15,15,36,26.70
2007,08,15,15,37,26.60
2007,08,15,15,38,26.60
2007,08,15,15,39,26.60
2007,08,15,15,40,26.70
2007,08,15,15,41,26.70
2007,08,15,15,42,26.70
2007,08,15,15,43,26.70
2007,08,15,15,44,26.70
2007,08,15,15,45,26.80
2007,08,15,15,46,26.80
2007,08,15,15,47,26.80
2007,08,15,15,48,26.70
2007,08,15,15,49,26.60
2007,08,15,15,50,26.50
2007,08,15,15,51,26.40
2007,08,15,15,52,26.30
2007,08,15,15,53,26.30
2007,08,15,15,54,26.30
2007,08,15,15,55,26.20
2007,08,15,15,56,26.20
2007,08,15,15,57,26.20
2007,08,15,15,58,26.10
2007,08,15,15,59,26.00
2007,08,15,16,00,25.90
2007,08,15,16,01,25.90
2007,08,15,16,02,26.00
2007,08,15,16,03,26.00
2007,08,15,16,04,26.00
2007,08,15,16,05,25.90
2007,08,15,16,06,25.90
2007,08,15,16,07,25.90
2007,08,15,16,08,25.80
2007,08,15,16,09,25.80
2007,08,15,16,10,25.80
2007,08,15,16,11,25.80
2007,08,15,16,12,25.80
2007,08,15,16,13,25.80
2007,08,15,16,14,25.90
2007,08,15,16,15,25.90
2007,08,15,16,16,25.90
2007,08,15,16,17,25.90
2007,08,15,16,18,25.90
2007,08,15,16,19,25.80
2007,08,15,16,20,25.80
2007,08,15,16,21,25.70
2007,08,15,16,22,25.70
2007,08,15,16,23,25.60
2007,08,15,16,24,25.60
2007,08,15,16,25,25.60
2007,08,15,16,26,25.60
2007,08,15,16,27,25.60
2007,08,15,16,28,25.70
2007,08,15,16,29,25.80
2007,08,15,16,30,25.80
2007,08,15,16,31,25.90
2007,08,15,16,32,25.90
2007,08,15,16,33,25.90
2007,08,15,16,34,25.90
2007,08,15,16,35,25.90
2007,08,15,16,36,26.00
2007,08,15,16,37,26.10
2007,08,15,16,38,26.20
2007,08,15,16,39,26.30
2007,08,15,16,40,26.30
2007,08,15,16,41,26.40
2007,08,15,16,42,26.40
2007,08,15,16,43,26.50
2007,08,15,16,44,26.50
2007,08,15,16,45,26.50
2007,08,15,16,46,26.50
2007,08,15,16,47,26.60
2007,08,15,16,48,26.60
2007,08,15,16,49,26.60
2007,08,15,16,50,26.60
2007,08,15,16,51,26.70
2007,08,15,16,52,26.80
2007,08,15,16,53,26.90
2007,08,15,16,54,26.90
2007,08,15,16,55,27.00
2007,08,15,16,56,26.90
2007,08,15,16,57,26.80
2007,08,15,16,58,26.80
2007,08,15,16,59,26.80
2007,08,15,17,00,26.70
2007,08,15,17,01,26.70
2007,08,15,17,02,26.80
2007,08,15,17,03,26.80
2007,08,15,17,04,26.90
2007,08,15,17,05,27.00
2007,08,15,17,06,27.00
2007,08,15,17,07,27.00
2007,08,15,17,08,27.00
2007,08,15,17,09,27.00
2007,08,15,17,10,27.10
2007,08,15,17,11,27.10
2007,08,15,17,12,27.10
2007,08,15,17,13,27.00
2007,08,15,17,14,27.00
2007,08,15,17,15,27.00
2007,08,15,17,16,26.90
2007,08,15,17,17,27.00
2007,08,15,17,18,27.00
2007,08,15,17,19,27.00